Weather History for KHRL - September, 2012

Change the Weather History Date:

Wednesday, September 19, 2012

  Actual Average Record
Temperature  
Mean Temperature 82 °F 81 °F  
Max Temperature 94 °F 91 °F 101 °F (1957)
Min Temperature 69 °F 72 °F 59 °F (1981)
Degree Days  
Heating Degree Days 0 0  
Month to date heating degree days 0 0  
Since 1 July heating degree days 0 0  
Cooling Degree Days 17 16  
Month to date cooling degree days 364 339  
Year to date cooling degree days 3926 3263  
Growing Degree Days 31 (Base 50)    
Moisture  
Dew Point 66 °F    
Average Humidity 63    
Maximum Humidity 90    
Minimum Humidity 36    
Precipitation  
Precipitation T in 0.17 in 4.30 in (2003)
Month to date precipitation 0.77 3.42  
Year to date precipitation 12.14 17.63  
Sea Level Pressure  
Sea Level Pressure 30.02 in    
Wind  
Wind Speed 8 mph (NNE)    
Max Wind Speed 20 mph    
Max Gust Speed 30 mph    
Visibility 10 miles    
Events      
T = Trace of Precipitation, MM = Missing Value Source: NWS Daily Summary

Daily Weather History Graph

Daily Weather History Graph

Search for Another Location

Airport or City:

Trip Planner

Search our weather history database for the weather conditions in past years. The results will help you decide how hot, cold, wet, or windy it might be!

Date:

Astronomy

Sep. 19, 2012 Rise Set
Actual Time 7:18 AM CDT 7:29 PM CDT
Civil Twilight 6:55 AM CDT 7:52 PM CDT
Nautical Twilight 6:28 AM CDT 8:19 PM CDT
Astronomical Twilight 6:01 AM CDT 8:46 PM CDT
Moon 11:00 AM CDT (9/19) 10:11 PM CDT (9/19)
Length of Visible Light 12h 57m
Length of Day
12h 11m
Waxing Crescent, 17% of the Moon is Illuminated
Sep 19
Waxing Crescent
Sep 22
First Quarter
Sep 29
Full
Oct 8
Last Quarter
Oct 15
New

Hourly Weather History & Observations

Time (CDT) Temp. Heat Index Dew Point Humidity Pressure Visibility Wind Dir Wind Speed Gust Speed Precip Events Conditions
12:52 AM 73.9 °F - 66.0 °F 76% 30.02 in 10.0 mi Calm Calm - N/A   Clear
1:52 AM 73.0 °F - 66.9 °F 81% 30.00 in 10.0 mi Calm Calm - N/A   Clear
2:52 AM 71.1 °F - 66.0 °F 84% 30.01 in 10.0 mi NW 3.5 mph - N/A   Clear
3:52 AM 70.0 °F - 66.0 °F 87% 30.01 in 10.0 mi WNW 5.8 mph - N/A   Clear
4:52 AM 70.0 °F - 66.0 °F 87% 30.00 in 10.0 mi WNW 5.8 mph - N/A   Clear
5:52 AM 69.8 °F - 66.2 °F 88% 30.01 in 10.0 mi NW 5.8 mph - N/A   Clear
6:52 AM 70.0 °F - 66.0 °F 87% 30.03 in 10.0 mi NW 4.6 mph - N/A   Clear
7:52 AM 69.1 °F - 66.0 °F 90% 30.04 in 10.0 mi WNW 5.8 mph - N/A   Clear
8:52 AM 73.9 °F - 68.0 °F 82% 30.07 in 10.0 mi NE 6.9 mph - N/A   Mostly Cloudy
9:52 AM 81.0 °F 83.8 °F 68.0 °F 65% 30.07 in 10.0 mi NW 6.9 mph - N/A   Clear
10:52 AM 86.0 °F 90.1 °F 69.1 °F 57% 30.08 in 10.0 mi NNW 3.5 mph - N/A   Partly Cloudy
11:52 AM 86.0 °F 88.8 °F 66.9 °F 53% 30.07 in 10.0 mi North 3.5 mph - N/A   Overcast
12:52 PM 90.0 °F 92.4 °F 66.0 °F 45% 30.05 in 10.0 mi NW 8.1 mph - N/A   Scattered Clouds
1:52 PM 91.0 °F 94.3 °F 66.9 °F 45% 30.02 in 10.0 mi East 17.3 mph 20.7 mph N/A   Mostly Cloudy
2:04 PM 93.2 °F 96.2 °F 66.2 °F 41% 30.01 in 10.0 mi ENE 13.8 mph - N/A   Mostly Cloudy
2:52 PM 89.1 °F 91.0 °F 64.9 °F 45% 30.01 in 10.0 mi ENE 13.8 mph 19.6 mph 0.00 in   Scattered Clouds
3:52 PM 89.1 °F 91.0 °F 64.9 °F 45% 29.98 in 10.0 mi ENE 15.0 mph - N/A   Mostly Cloudy
4:52 PM 91.0 °F 90.9 °F 61.0 °F 36% 29.97 in 10.0 mi ENE 16.1 mph - N/A   Clear
5:52 PM 88.0 °F 88.4 °F 62.1 °F 42% 29.97 in 10.0 mi ENE 17.3 mph 21.9 mph N/A   Clear
6:52 PM 84.0 °F 85.8 °F 64.9 °F 53% 29.99 in 10.0 mi East 16.1 mph - N/A   Clear
7:52 PM 80.6 °F 82.7 °F 66.2 °F 61% 29.99 in 10.0 mi East 10.4 mph - N/A   Clear
8:52 PM 75.9 °F - 66.9 °F 74% 30.01 in 10.0 mi East 6.9 mph - N/A   Clear
9:52 PM 73.9 °F - 66.9 °F 79% 30.03 in 10.0 mi East 6.9 mph - N/A   Clear
10:52 PM 73.9 °F - 68.0 °F 82% 30.04 in 10.0 mi East 8.1 mph - N/A   Clear
11:52 PM 73.0 °F - 68.0 °F 84% 30.04 in 10.0 mi East 3.5 mph - N/A   Clear